Regional Weather Roundup
Issued by NWS

Home | Current Version | Previous Version | Text Only | Print | Product List | Glossary On
Versions: 1 2 3 4 5 6 7 8 9 10 11 12 13 14 15 16 17 18 19 20 21 22 23 24 25 26 27 28 29 30 31 32 33 34 35 36 37 38 39 40 41 42 43 44 45 46 47 48 49 50
000
ASUS42 KFFC 262103
RWRGA
WEATHER ROUNDUP FOR GEORGIA
NATIONAL WEATHER SERVICE PEACHTREE CITY GA
400 PM EST MON JAN 26 2015

NOTE: "FAIR" INDICATES FEW OR NO CLOUDS BELOW 12,000 FEET WITH NO
SIGNIFICANT WEATHER AND/OR OBSTRUCTIONS TO VISIBILITY.

* = USE WITH CAUTION. THE STATIONS MARKED WITH AN ASTERISK MAY NOT
REPORT WEATHER SUCH AS PRECIPITATION, FOG, OR THUNDER AND ARE NOT
QUALITY CONTROLLED BY NWS.

THE REMARK "TC" DENOTES TEMPERATURE READING IN DEGREES CELSIUS.

GAZ001>058-262200-
NORTH GEORGIA

CITY           SKY/WX    TMP DP  RH WIND       PRES   REMARKS
ATLANTA        CLOUDY    39  30  70 NW21      29.87S WCI  29
ATHENS         PTSUNNY   43  31  62 W15G24    29.79R
CHAMBLEE       CLOUDY    38  29  70 W15G24    29.87R WCI  29
PEACHTREE CITY CLOUDY    40  30  67 NW17G23   29.90R WCI  31
ROME           CLOUDY    39  30  70 W12       29.93R WCI  32
WEST ATLANTA   CLOUDY    39  29  67 NW15G23   29.89R WCI  31
GAINESVILLE    CLOUDY    39  29  67 W15       29.82R WCI  31
CARTERSVILLE   CLOUDY    38  28  67 VRB3      29.92R


CITY           SKY/WX    TMP DP  RH WIND       PRES   REMARKS
DALTON*        CLOUDY    36  30  80 N10       29.92R WCI  28
LAWRENCEVILLE* CLOUDY    37  25  60 W17G25    29.82  WCI  28
MARIETTA       CLOUDY    38  30  73 W14       29.87R WCI  29
KENNESAW*      CLOUDY   N/A N/A N/A NW9G21    29.90R
$$

GAZ059>098-102>109-262200-
CENTRAL GEORGIA

CITY           SKY/WX    TMP DP  RH WIND       PRES   REMARKS
AUGUSTA-BUSH   CLOUDY    53  34  48 W20G29    29.71R
AUGUSTA-DANIEL CLOUDY    53  35  50 W10G23    29.71R
COLUMBUS       CLOUDY    44  33  65 NW20G26   29.92S
MACON          CLOUDY    47  35  63 NW14G28   29.85R
ROBINS AFB     CLOUDY    49  35  58 NW22      29.82S


CITY           SKY/WX    TMP DP  RH WIND       PRES   REMARKS
LAGRANGE*      CLOUDY    45  37  75 NW17      29.92S
SYLVANIA*      CLOUDY    53  40  62 NW18G30   29.73R
MILLEDGEVILLE* CLOUDY    46  37  71 W15G26    29.83R
$$

GAZ099>101-110>166-262200-
SOUTH GEORGIA

CITY           SKY/WX    TMP DP  RH WIND       PRES   REMARKS
SAVANNAH       CLOUDY    54  36  50 W23G33    29.74R
VALDOSTA       CLOUDY    52  37  56 NW10G17   29.88R
ALMA           CLOUDY    51  37  58 W14G20    29.82R
ST SIMONS      CLOUDY    53  37  54 W20G30    29.79R
FT STEWART     CLOUDY    53  38  56 W17G25    29.75R
ALBANY         CLOUDY    51  35  54 NW12G24   29.91R
HUNTER AFB     PTSUNNY   55  38  53 W16G22    29.72R
MOODY AFB      CLOUDY    51  36  56 NW17      29.87R
BRUNSWICK      CLOUDY    54  37  54 W18G28    29.80R


CITY           SKY/WX    TMP DP  RH WIND       PRES   REMARKS
BAINBRIDGE*    PTSUNNY   55  41  58 NW16      29.93S
MOULTRIE*      CLOUDY    52  37  58 NW15G23   29.88F
VIDALIA*       CLOUDY    50  39  66 W10       29.79S
WAYCROSS*      CLOUDY    54  41  62 NW12G22   29.83R
DOUGLAS*       CLOUDY    52  36  54 NW10G21   29.85S
$$


USA.gov is the U.S. government's official web portal to all federal, state and local government web resources and services.